GW2364 Weather Reports


time (UTC)temp
C
wind
direction
speed
KPH
gust
KPH
rain 1hr
cm
rain 24hr
cm
rain mn
cm
humidity
%
barometer
mb
20260506140003 23 69 0.0 4.8 0.00 0.00 0.00 91 1008.4
20260506134500 23 62 1.6 4.8 0.00 0.00 0.00 91 1007.7
20260506133001 23 92 1.6 6.4 0.00 0.00 0.00 92 1007.8
20260506131504 23 65 1.6 9.7 0.00 0.00 0.00 93 1007.6
20260506130004 23 80 0.0 4.8 0.00 0.00 0.00 93 1007.4
20260506124501 23 125 1.6 6.4 0.00 0.00 0.00 93 1007.2
20260506123002 22 71 1.6 3.2 0.00 0.00 0.00 93 1007.2
20260506121601 22 223 0.0 1.6 0.00 0.00 0.00 93 1007.3
20260506120115 23 223 0.0 1.6 0.00 0.00 0.00 93 1007.2
20260506120006 23 223 0.0 1.6 0.00 0.00 0.00 93 1007.1
20260506114502 23 223 0.0 1.6 0.00 0.00 0.00 92 1007.0
20260506113101 23 223 0.0 1.6 0.00 0.00 0.00 92 1007.2
20260506111601 23 223 0.0 0.0 0.00 0.00 0.00 92 1007.1
20260506110100 23 223 0.0 1.6 0.00 0.00 0.00 92 1007.1
20260506110004 23 223 0.0 1.6 0.00 0.00 0.00 92 1007.1
20260506104602 23 223 0.0 1.6 0.00 0.00 0.00 92 1007.0
20260506103101 23 227 0.0 3.2 0.00 0.00 0.00 92 1006.7
20260506101632 23 227 1.6 8.0 0.00 0.00 0.00 92 1006.6
20260506100106 23 237 1.6 8.0 0.00 0.00 0.00 92 1006.5
20260506100004 23 232 0.0 6.4 0.00 0.00 0.00 92 1006.5
20260506094614 23 233 1.6 8.0 0.00 0.00 0.00 93 1006.4
20260506093100 23 234 1.6 8.0 0.00 0.00 0.00 93 1006.2
20260506091606 23 241 1.6 11.3 0.00 0.00 0.00 93 1006.0
20260506090008 23 85 1.6 6.4 0.00 0.00 0.00 91 1005.9
20260506084602 23 228 3.2 14.5 0.00 0.00 0.00 91 1005.9
20260506083106 23 257 3.2 11.3 0.00 0.00 0.00 91 1006.0
20260506083002 23 100 3.2 11.3 0.00 0.00 0.00 91 1005.9
20260506081600 23 223 1.6 11.3 0.00 0.00 0.00 90 1006.0
20260506080110 23 204 0.0 4.8 0.00 0.00 0.00 90 1006.1
20260506073114 23 145 0.0 11.3 0.00 0.00 0.00 90 1006.3
20260506071602 23 342 3.2 12.9 0.00 0.00 0.00 90 1006.4
20260506061609 23 223 0.0 6.4 0.00 0.00 0.00 90 1006.5
20260506044502 23 217 0.0 9.7 0.00 0.00 0.00 90 1006.5
20260506043002 23 94 1.6 6.4 0.00 0.00 0.00 89 1006.5
20260506041502 24 100 0.0 9.7 0.00 0.00 0.00 88 1006.3
20260506040008 24 78 1.6 9.7 0.00 0.00 0.00 88 1006.3
20260506034502 24 64 1.6 12.9 0.00 0.00 0.00 88 1006.1
20260506033002 24 115 0.0 6.4 0.00 0.00 0.00 88 1006.1
20260506031504 24 180 1.6 8.0 0.00 0.00 0.00 87 1005.8
20260506030005 25 92 1.6 11.3 0.00 0.00 0.00 86 1005.6
20260506024503 25 76 3.2 12.9 0.00 0.00 0.00 85 1005.4
20260506023002 25 82 0.0 8.0 0.00 0.00 0.00 84 1005.0
20260506021502 25 79 0.0 6.4 0.00 0.00 0.00 84 1004.7
20260506020003 25 103 1.6 6.4 0.00 0.00 0.00 83 1004.4
20260506014501 25 68 1.6 4.8 0.00 0.00 0.00 83 1004.4
20260506013002 25 78 1.6 4.8 0.00 0.00 0.00 82 1004.3
20260506011505 26 111 1.6 4.8 0.00 0.00 0.00 80 1004.3
20260506010005 26 90 0.0 3.2 0.00 0.00 0.00 78 1004.3
20260506004508 27 106 0.0 3.2 0.00 0.00 0.00 77 1004.3
20260506003002 27 106 0.0 1.6 0.00 0.00 0.00 75 1004.2
20260506001502 27 252 1.6 4.8 0.00 0.00 0.00 75 1004.3
20260506000004 27 252 3.2 11.3 0.00 0.00 0.00 73 1004.1
20260505234502 28 217 0.0 8.0 0.00 0.00 0.00 73 1003.9
20260505233002 28 169 1.6 8.0 0.00 0.00 0.00 72 1003.8
20260505231502 28 224 3.2 12.9 0.00 0.00 0.00 72 1003.8
20260505230007 28 223 4.8 14.5 0.00 0.00 0.00 70 1003.7
20260505224502 28 248 6.4 14.5 0.00 0.00 0.00 69 1003.7
20260505223002 28 223 6.4 17.7 0.00 0.00 0.00 69 1003.7
20260505221503 29 244 3.2 12.9 0.00 0.00 0.00 68 1003.7
20260505220003 29 295 3.2 19.3 0.00 0.00 0.00 68 1003.7
20260505214505 29 218 4.8 19.3 0.00 0.00 0.00 67 1004.1
20260505213003 29 243 6.4 20.9 0.00 0.00 0.00 67 1004.2
20260505211502 30 240 9.7 17.7 0.00 0.00 0.00 66 1004.1
20260505210004 29 192 3.2 16.1 0.00 0.00 0.00 69 1004.5
20260505204502 29 288 3.2 14.5 0.00 0.00 0.00 69 1004.5
20260505203002 28 215 3.2 19.3 0.00 0.00 0.00 70 1004.9
20260505201501 29 108 3.2 12.9 0.00 0.00 0.00 70 1005.1
20260505200005 28 236 8.0 17.7 0.00 0.00 0.00 70 1005.4
20260505194501 28 55 3.2 9.7 0.00 0.00 0.00 72 1005.5
20260505193001 28 333 4.8 14.5 0.00 0.00 0.00 73 1005.8
20260505191501 27 217 3.2 17.7 0.00 0.00 0.00 73 1005.8
20260505190005 27 278 3.2 14.5 0.00 0.00 0.00 72 1005.9
20260505184501 27 230 3.2 14.5 0.00 0.00 0.00 74 1006.1
20260505183001 27 275 8.0 17.7 0.00 0.00 0.00 74 1006.2
20260505181502 26 217 4.8 14.5 0.00 0.00 0.00 78 1006.6
20260505180004 25 213 4.8 16.1 0.00 0.00 0.00 80 1006.5
20260505174502 25 205 8.0 17.7 0.00 0.00 0.00 80 1006.8
20260505173002 24 250 6.4 17.7 0.00 0.00 0.00 81 1006.9
20260505171502 24 233 6.4 16.1 0.00 0.00 0.00 82 1006.9
20260505170003 23 234 4.8 16.1 0.00 0.00 0.00 84 1007.1
20260505164501 23 225 6.4 17.7 0.00 0.00 0.00 85 1007.2
20260505163000 22 254 8.0 19.3 0.00 0.00 0.00 86 1007.0
20260505161501 22 238 6.4 14.5 0.00 0.00 0.00 87 1007.1
20260505153004 21 223 3.2 12.9 0.00 0.00 0.00 90 1007.4
20260505151601 21 225 4.8 12.9 0.00 0.00 0.00 91 1007.3
20260505151500 21 242 4.8 12.9 0.00 0.00 0.00 91 1007.2